Theta_e
290 290 290 290 291 291 291 291 290 291 290 289 289 289 289 290 289 290 289 289 289 289 291 290 290 289 291 292 292 294 296 295 296 304 303 301 290 289 290 292 295 295 294 289 286 288 297 292 291 297 299 295 293 292
289 289 289 290 290 291 290 291 291 290 291 291 289 289 289 289 290 290 289 289 289 290 290 290 291 291 291 292 292 293 295 293 296 300 297 294 296 288 291 296 291 298 294 293 292 295 295 291 295 293 292 294 295 294
289 289 289 289 289 289 289 289 290 291 291 290 290 289 289 289 289 290 290 289 289 289 289 290 289 291 290 291 291 291 292 294 295 291 292 295 295 290 291 291 293 291 290 293 293 297 293 291 292 292 292 293 293 292
289 289 288 288 288 289 288 288 289 290 291 291 290 290 289 289 289 289 290 290 289 288 289 289 288 288 290 290 292 293 292 292 291 292 292 293 295 292 293 294 294 292 291 290 291 294 294 294 292 293 293 292 292 291
289 289 289 289 288 288 289 289 289 290 291 290 290 289 289 289 289 290 290 290 289 289 289 287 284 289 289 291 291 292 293 293 294 296 296 297 291 292 285 286 287 289 292 296 300 298 300 302 299 296 294 294 293 292
290 289 287 287 288 288 289 290 289 289 290 290 289 289 289 289 289 289 289 289 289 289 289 285 281 283 289 292 292 292 293 294 294 296 296 293 290 292 290 291 292 290 290 293 299 297 295 295 292 293 293 293 292 290
288 288 289 290 290 290 290 290 290 290 290 290 289 289 289 290 289 285 284 288 289 290 289 286 280 281 287 291 293 294 294 295 295 297 297 295 291 293 295 294 298 293 292 292 291 292 295 293 296 294 291 290 285 284
289 289 290 291 291 291 291 291 291 290 290 289 289 289 289 289 289 288 288 290 290 289 288 287 281 282 289 291 293 294 295 295 295 299 295 294 290 289 297 290 295 297 294 292 292 291 297 292 287 290 285 282 284 288
289 290 290 289 292 293 292 291 290 290 290 289 289 289 287 288 288 288 289 289 289 289 289 277 280 282 289 288 292 292 295 297 293 297 295 296 292 300 295 294 290 295 296 298 288 285 283 286 292 292 291 278 283 290
289 290 289 290 293 292 290 290 290 289 288 288 287 283 276 286 287 288 288 288 289 289 288 283 275 281 289 291 292 293 293 297 297 295 291 296 293 283 285 291 295 297 295 289 291 294 283 288 291 292 291 291 289 291
290 290 289 289 290 290 290 290 289 289 288 286 273 275 284 286 286 285 283 289 290 289 285 280 286 285 287 291 293 292 294 292 294 288 291 291 291 289 290 290 295 291 293 292 294 294 286 287 289 292 293 287 285 283
289 289 289 289 290 290 289 289 288 286 285 283 282 285 284 277 277 282 285 287 290 285 284 284 284 287 287 287 293 291 292 293 291 280 287 293 290 289 292 296 298 289 291 290 279 281 277 276 275 277 276 277 276 278
289 289 289 289 290 289 289 288 286 283 284 284 276 274 277 276 282 286 287 288 289 288 286 285 290 289 285 288 292 290 292 293 280 291 288 288 286 283 286 283 279 270 270 272 272 268 267 267 269 265 269 270 271 270
289 290 290 289 289 289 288 287 284 284 284 273 272 276 276 278 282 286 287 288 287 283 283 288 286 290 291 291 292 292 277 281 292 287 291 287 282 277 274 269 274 274 268 268 268 265 265 264 265 268 269 270 267 267
289 289 289 289 289 288 288 286 284 284 280 273 274 276 274 277 275 278 281 282 285 286 289 286 286 286 288 286 283 281 287 287 289 291 285 281 276 270 271 269 268 268 266 266 264 264 264 263 263 265 270 270 270 269
288 288 288 288 288 288 287 285 285 284 271 271 275 276 269 274 278 277 278 283 284 287 288 292 292 292 291 287 289 294 289 290 287 276 276 273 273 269 267 266 265 263 263 263 262 262 262 263 263 264 270 269 269 269
287 288 288 288 288 286 285 284 284 272 268 272 273 263 275 271 278 273 274 282 282 287 288 289 293 288 283 286 296 291 284 278 273 273 268 267 267 267 265 264 265 264 264 262 262 264 264 269 269 268 268 267 270 271
287 288 288 288 286 285 285 284 274 276 275 267 276 274 267 271 273 272 271 277 282 283 285 287 284 293 293 290 295 285 278 271 268 267 268 266 265 265 263 265 263 262 262 262 265 268 268 267 268 267 267 270 270 270
287 287 288 287 285 284 277 278 278 276 276 268 267 266 265 271 270 269 269 280 280 280 280 284 288 287 285 281 282 279 275 271 272 272 271 265 263 263 265 266 267 265 266 264 266 266 267 268 268 269 269 269 269 269
286 287 287 287 285 282 278 279 281 280 281 279 268 272 271 272 268 264 270 279 275 278 284 281 277 276 278 276 273 271 269 269 268 271 270 269 266 265 264 262 262 267 269 270 270 270 269 269 269 268 268 268 268 267
287 286 285 286 285 284 276 277 280 282 281 282 281 282 278 278 282 281 281 273 280 267 280 270 269 270 270 267 266 264 265 264 265 268 266 266 265 264 264 268 270 269 269 268 268 268 268 268 267 266 266 266 266 265
287 286 285 286 285 284 283 281 283 284 284 283 283 284 280 276 282 275 272 270 266 266 263 265 265 265 268 267 265 266 264 264 264 265 266 265 264 264 265 265 267 267 267 268 268 268 268 267 267 266 266 265 264 264
286 287 286 286 285 285 283 282 284 284 285 286 285 284 283 278 272 271 269 263 261 262 261 262 263 264 263 268 267 267 267 265 262 263 266 266 268 267 267 267 269 268 268 268 268 267 266 266 266 265 265 264 263 263
284 283 284 283 284 284 281 283 283 284 284 285 286 288 282 276 275 270 268 261 260 259 262 263 261 264 266 265 264 263 267 267 266 267 268 269 268 268 267 266 267 267 267 266 266 265 265 264 264 264 263 263 262 261
282 279 278 280 279 279 280 281 283 284 285 285 286 285 283 280 274 271 269 264 261 261 263 264 265 267 266 266 264 266 269 269 267 267 266 268 269 268 267 266 265 265 266 265 264 264 263 262 262 261 260 260 259 258
281 273 275 273 273 275 275 278 280 279 280 283 279 276 280 282 281 275 269 264 264 263 263 262 262 265 267 268 267 266 267 269 268 267 265 265 266 268 268 268 266 264 265 264 264 263 262 261 260 259 258 257 257 256
279 273 270 268 267 267 272 273 273 276 275 273 270 272 281 279 275 268 266 264 264 263 263 263 263 265 267 268 267 267 266 266 266 265 264 264 264 265 265 264 263 262 264 264 263 262 260 259 258 256 256 257 257 257
270 268 271 267 266 266 269 270 270 269 268 266 268 268 272 270 269 264 263 263 262 262 264 265 265 266 267 267 268 267 266 266 266 265 265 264 263 263 262 262 263 264 264 265 264 264 262 260 259 258 257 256 256 258
270 266 266 271 268 267 265 266 268 266 263 264 268 267 265 263 262 261 262 262 264 265 266 267 267 267 266 266 266 267 268 269 269 268 266 265 264 261 262 262 263 264 264 264 262 262 262 261 260 259 258 258 258 259
268 264 269 269 269 268 267 266 267 264 264 262 262 263 263 263 263 262 262 263 264 265 265 265 266 267 267 266 265 264 265 267 268 267 266 264 261 261 262 263 262 262 261 261 260 259 260 260 260 260 259 259 259 259
264 263 268 268 269 269 267 265 264 264 264 264 264 265 264 263 263 263 263 263 264 264 265 265 265 265 265 264 265 265 263 263 265 266 264 262 262 263 263 263 263 263 263 263 262 262 262 261 260 259 259 258 259 260
264 268 272 272 270 267 267 268 268 270 269 269 268 265 265 266 265 263 263 263 263 263 262 262 263 263 263 263 263 264 263 264 265 265 265 264 264 263 263 263 264 264 264 264 263 262 261 261 259 259 258 258 259 260
269 270 271 272 272 272 270 268 270 270 271 271 269 268 267 268 265 263 263 263 262 262 261 261 261 262 262 263 263 263 264 264 264 265 265 265 264 264 264 264 264 264 264 263 262 261 261 260 259 259 259 260 260 260
Wind_Speed
38 40 42 42 41 40 38 36 33 29 22 25 24 21 21 19 19 22 20 19 12 6 9 6 11 5 1 2 6 3 4 2 0 7 6 5 3 7 4 5 6 8 9 4 3 2 9 8 6 7 5 0 2 4
42 44 45 44 42 38 35 35 34 29 25 28 28 27 26 26 27 27 21 24 23 6 5 10 23 25 10 4 2 3 7 6 4 3 3 3 2 1 6 4 3 5 7 7 10 8 2 8 6 8 2 2 3 4
44 44 45 44 40 36 35 32 32 32 28 29 29 27 29 31 33 35 33 24 17 6 8 5 10 37 23 20 23 7 4 4 6 3 3 3 4 4 5 5 3 5 4 3 3 7 15 10 8 6 6 9 6 7
45 45 44 43 39 39 38 36 32 33 30 28 26 25 28 31 29 30 32 31 25 2 5 6 12 11 14 18 26 27 16 6 1 1 3 3 3 3 3 3 4 4 9 5 5 8 8 10 11 11 9 8 9 8
50 49 45 45 43 40 40 37 34 30 30 26 23 23 25 24 26 27 30 30 31 8 3 2 5 20 15 18 28 27 18 7 5 4 4 4 3 4 1 2 2 5 7 5 6 8 4 3 3 4 6 7 9 8
51 47 50 50 47 46 43 37 34 29 28 23 18 19 18 21 19 9 3 15 26 26 3 2 4 4 6 14 17 14 13 8 6 3 3 3 1 3 4 5 5 10 7 6 5 3 5 5 8 7 8 10 9 7
53 54 54 54 52 50 46 41 35 30 25 18 16 15 16 11 8 3 3 4 29 25 2 1 3 4 6 5 4 5 11 4 4 3 4 3 1 4 2 4 5 10 11 9 6 1 11 6 7 6 8 8 4 6
54 56 54 49 48 47 45 41 33 28 23 15 13 10 11 6 6 4 14 4 26 8 3 3 4 2 8 4 4 5 5 5 4 3 1 2 2 2 3 6 5 6 8 6 10 13 18 4 6 10 4 2 5 10
54 50 45 55 50 32 27 23 21 26 19 11 8 4 7 3 2 3 2 15 17 5 3 3 5 5 4 3 1 0 3 4 1 3 3 5 3 5 6 8 7 11 10 12 4 5 5 6 15 12 10 1 7 13
43 39 36 40 16 26 30 25 23 20 14 12 5 3 3 4 1 2 3 4 6 5 5 5 1 2 4 4 3 4 3 4 5 4 2 3 4 2 5 8 10 10 12 6 2 9 3 8 11 11 12 10 9 11
33 28 23 18 21 24 26 27 23 21 16 5 2 2 1 3 2 1 3 5 5 5 5 4 9 4 2 4 3 3 3 3 3 3 4 3 3 5 10 11 17 9 10 12 12 8 5 5 5 11 14 6 6 6
28 18 13 10 18 25 24 24 22 9 6 7 3 1 0 3 3 2 3 5 5 4 1 6 4 5 3 1 2 4 4 2 4 3 3 3 5 9 12 18 20 8 11 9 1 3 3 5 4 6 6 5 5 9
24 8 7 10 18 22 23 17 13 13 9 3 4 4 3 3 2 2 3 3 3 2 2 2 5 4 2 2 2 3 5 3 2 2 3 5 4 5 8 1 3 4 4 2 3 2 2 3 5 2 6 9 15 11
15 7 8 15 18 20 17 16 12 6 4 3 3 4 3 3 2 3 2 8 7 1 3 3 2 3 3 2 2 1 2 2 3 1 5 3 3 5 4 1 3 2 3 3 2 2 3 3 5 10 9 12 12 6
19 11 7 14 21 17 14 10 6 5 3 2 3 2 3 2 4 3 3 4 3 3 2 2 3 3 3 3 1 4 4 4 6 5 3 3 5 4 3 2 4 4 4 3 2 3 4 4 4 6 12 13 13 14
13 19 18 16 15 12 8 6 6 5 3 3 1 1 3 1 3 3 3 4 2 6 2 0 3 3 2 4 3 3 6 6 1 3 3 5 6 5 5 4 4 2 3 3 2 2 3 4 3 5 8 17 17 16
8 3 6 10 10 7 5 2 2 4 3 3 3 1 3 3 4 3 2 4 4 2 1 2 3 2 1 2 3 2 1 2 3 3 3 3 4 5 5 4 4 5 3 3 2 3 4 7 7 7 8 12 17 20
1 5 7 9 6 2 1 0 4 2 2 4 2 4 2 3 1 3 3 2 2 1 1 1 1 2 2 2 3 1 2 2 3 2 3 3 5 6 4 4 4 2 3 3 5 9 10 7 8 6 10 12 14 17
3 6 7 6 3 2 1 3 3 2 6 3 3 2 2 3 3 1 3 4 2 1 2 2 2 2 2 1 1 1 1 1 2 4 3 1 0 3 3 2 2 5 7 5 7 5 9 14 12 13 13 14 10 15
11 9 8 7 4 1 3 3 3 2 3 3 1 2 3 3 3 2 2 3 3 2 4 3 2 1 3 3 1 1 2 3 3 3 3 5 4 7 5 3 1 6 10 11 13 14 12 14 18 18 18 18 16 15
13 17 14 12 4 6 3 2 2 3 2 2 2 3 2 1 1 2 1 1 3 2 2 2 2 1 3 3 4 2 4 4 4 3 3 1 2 6 5 11 13 13 5 4 5 7 14 11 14 16 19 19 20 22
8 9 8 13 4 3 3 4 3 2 2 2 2 2 2 3 3 2 1 4 2 2 1 0 3 3 3 3 3 7 9 8 8 4 6 4 3 3 3 6 6 5 5 8 10 7 13 15 17 18 19 21 23 24
4 6 5 6 5 5 5 5 4 4 3 2 3 3 2 2 2 1 3 2 2 1 2 2 3 5 3 4 7 10 13 9 3 2 5 7 9 10 11 13 14 6 6 12 15 15 16 17 19 20 20 21 22 24
2 1 1 2 2 4 1 2 2 2 2 2 3 3 3 2 1 3 1 1 2 2 2 3 2 2 2 3 3 3 9 4 2 11 15 8 4 8 13 13 14 16 14 14 16 17 17 18 19 21 21 22 22 22
1 2 3 3 2 3 3 4 2 2 2 1 2 2 3 2 3 3 2 3 0 3 0 4 2 3 2 0 1 3 10 6 3 7 13 12 8 10 13 15 18 19 13 16 15 17 19 21 22 23 23 22 22 22
1 3 2 2 3 2 2 2 3 4 2 2 3 3 1 2 3 2 3 4 3 3 4 3 2 2 2 2 1 2 5 10 13 6 13 14 13 7 5 5 5 11 14 16 19 21 21 21 24 26 26 25 25 28
1 2 2 1 1 2 3 2 2 2 3 4 4 4 1 3 3 1 1 2 2 4 9 9 5 3 2 3 10 15 18 18 19 16 16 20 21 17 14 8 7 10 17 23 25 26 27 26 27 27 30 30 28 28
2 2 1 4 3 2 2 3 3 4 3 2 2 4 3 3 1 2 1 5 10 10 8 3 2 2 7 10 11 14 17 22 23 23 25 26 25 23 23 22 21 22 25 28 31 33 35 36 35 34 34 32 28 27
1 2 1 2 3 3 3 3 3 2 2 2 2 2 2 1 1 2 5 12 10 4 3 4 6 8 9 11 10 8 6 5 4 8 10 6 4 15 18 23 27 29 31 32 32 33 35 36 36 36 34 33 30 29
2 2 1 3 3 3 2 1 2 1 1 1 2 2 2 1 5 9 9 10 9 7 6 6 6 7 6 6 8 16 16 12 12 8 6 6 6 16 22 27 30 31 33 35 35 32 34 35 34 33 33 32 31 30
2 2 1 3 2 1 1 1 0 0 0 2 2 3 2 2 0 13 20 15 12 13 11 10 13 13 10 10 8 6 7 13 16 19 25 25 24 25 27 28 30 32 33 34 33 32 32 32 32 31 31 30 28 27
2 1 2 3 1 1 1 1 1 1 1 1 2 1 1 2 3 4 17 15 12 12 14 13 12 13 14 16 17 20 21 22 23 23 25 27 28 28 29 29 29 30 30 30 30 29 29 32 32 31 30 28 26 25
2 0 1 3 2 2 0 1 0 2 2 2 2 1 2 2 3 1 6 14 12 10 11 14 16 19 20 21 22 23 23 23 23 25 27 28 28 28 28 27 27 27 28 29 28 28 29 30 31 29 28 26 24 22
Wind_Direction
306 305 302 299 296 293 287 286 281 280 275 268 269 264 263 261 254 248 257 247 214 254 267 219 230 197 189 172 197 295 299 200 139 187 185 192 146 211 116 158 180 162 152 177 117 115 264 147 83 184 207 273 155 194
306 306 303 300 296 293 293 286 283 276 268 262 263 258 259 260 261 258 252 243 240 226 273 254 238 238 239 169 163 172 276 334 238 155 195 133 138 164 151 202 159 209 179 178 190 206 255 212 206 216 155 179 223 205
306 305 302 299 296 293 292 292 283 277 265 261 260 264 265 267 267 261 255 238 211 238 263 219 217 235 243 222 219 229 236 188 245 338 190 167 181 140 168 228 138 238 170 210 126 236 235 234 265 247 221 234 232 240
305 303 301 298 294 290 290 288 283 276 267 262 261 267 272 273 266 267 255 229 206 211 250 244 246 253 239 221 209 214 234 208 230 358 276 178 180 183 202 153 170 172 139 167 269 278 282 240 224 235 241 250 259 256
304 300 299 295 291 286 283 280 279 275 273 257 263 274 277 273 268 276 253 214 210 202 215 225 283 277 251 211 203 213 219 227 250 248 247 214 143 135 359 74 235 191 170 171 216 228 194 209 138 169 217 242 238 236
307 305 300 294 288 282 277 272 268 267 265 255 260 266 274 269 274 252 187 213 202 199 216 208 281 282 187 198 199 203 211 210 217 225 224 248 220 126 163 198 237 197 195 195 223 230 226 266 269 217 224 234 245 226
310 306 300 294 285 276 268 265 256 255 250 239 247 253 272 292 240 149 189 211 187 180 188 191 279 265 173 177 202 206 204 196 212 229 219 219 202 134 160 195 217 208 215 236 229 347 291 195 248 213 224 243 231 243
315 314 310 305 295 276 259 253 237 233 230 219 236 252 286 272 236 244 229 186 160 164 173 201 248 26 185 184 195 193 187 182 213 221 160 180 124 99 236 233 204 191 212 226 237 216 242 311 296 275 243 200 249 257
321 322 321 318 305 266 226 216 186 194 186 200 217 237 285 158 185 185 203 188 196 204 248 131 156 219 181 230 177 235 192 161 80 221 208 172 148 221 202 182 200 225 193 222 231 244 267 230 265 272 275 205 242 274
327 332 337 348 55 121 141 150 157 151 155 152 148 85 326 206 166 278 134 173 194 197 208 199 112 181 170 162 203 212 187 163 185 206 138 197 242 290 232 214 205 217 200 154 150 273 275 262 244 255 248 255 242 261
335 342 350 22 79 106 121 127 133 132 136 138 98 199 336 331 97 185 237 221 185 206 199 193 178 152 226 156 225 252 174 177 144 225 158 210 267 226 202 214 234 178 208 220 217 250 196 235 302 293 283 266 260 257
337 345 7 63 101 111 117 125 131 119 114 141 147 134 358 54 38 141 243 283 258 220 205 161 177 152 153 127 189 218 142 182 197 178 108 247 238 223 189 216 234 183 210 243 152 268 289 282 278 283 291 277 270 295
351 15 49 94 125 119 123 121 119 110 118 91 51 45 56 304 75 207 259 265 288 352 192 233 144 129 102 204 194 223 144 150 97 85 230 234 263 248 227 346 34 26 80 62 336 36 22 299 310 242 292 296 306 298
354 39 109 131 127 121 118 114 113 108 68 74 84 318 128 300 254 231 272 297 294 253 252 206 101 130 115 184 317 59 310 77 86 195 234 239 262 305 336 13 123 99 46 54 350 350 318 324 308 311 303 311 315 308
44 54 88 164 125 120 117 107 87 44 87 93 78 261 253 239 249 239 242 266 255 256 228 92 73 95 107 240 35 129 141 177 188 214 230 286 305 303 348 30 62 53 29 60 325 337 330 324 324 320 349 352 350 349
48 75 79 103 118 116 112 94 34 16 48 68 20 9 293 360 302 351 306 288 273 333 351 71 168 146 203 143 161 191 142 188 209 253 299 335 346 358 345 360 21 17 35 10 4 357 330 329 324 325 9 28 33 36
30 67 130 116 113 116 104 41 16 45 113 39 285 180 203 246 232 230 219 280 303 307 21 353 45 174 158 41 60 62 124 272 280 299 302 318 298 307 338 340 14 29 28 14 358 24 22 29 53 49 42 16 47 50
354 157 174 164 168 176 283 64 89 83 293 246 213 255 223 236 185 278 265 265 11 359 284 26 327 24 353 74 79 13 14 282 214 223 258 298 326 345 359 352 349 4 77 62 40 45 37 34 53 38 23 32 48 39
227 195 200 207 233 304 64 317 128 209 228 219 269 269 204 268 257 208 266 293 275 71 62 32 78 63 35 355 310 22 96 203 291 308 312 290 82 360 336 21 81 58 63 67 58 60 57 52 54 45 36 46 57 45
245 245 242 232 252 20 340 286 192 227 248 225 101 206 201 205 286 13 321 328 0 23 27 38 21 61 354 339 3 317 302 308 300 331 0 353 6 16 18 10 20 73 69 61 59 58 58 56 44 48 54 55 59 51
241 247 237 230 212 210 187 234 270 218 219 207 175 145 231 115 298 286 339 51 48 354 26 48 308 300 330 308 305 249 226 179 188 195 198 315 3 26 8 40 66 58 58 42 59 53 58 60 55 55 59 57 62 65
226 214 208 199 194 228 227 208 206 275 228 219 160 190 149 137 192 223 159 56 37 313 313 38 290 318 351 352 314 344 342 22 28 26 40 47 43 15 11 29 57 61 57 54 62 66 65 63 69 67 69 68 66 64
161 199 189 189 203 221 249 155 197 206 231 217 148 176 200 114 208 34 73 132 206 306 286 292 291 284 268 325 36 28 27 29 14 16 46 49 59 55 58 48 45 62 79 59 68 73 73 72 72 76 75 74 74 69
222 359 232 229 241 261 320 224 211 240 238 211 196 183 123 145 136 56 147 246 167 330 336 290 274 320 5 18 24 355 9 50 65 59 42 52 63 53 58 57 56 62 73 85 80 78 76 76 78 76 77 77 73 72
187 338 12 281 36 323 298 316 266 224 260 202 212 147 143 117 85 50 297 296 121 125 274 325 355 42 95 19 345 352 34 47 72 74 28 42 80 84 70 64 57 53 83 89 85 87 81 81 79 77 75 77 79 74
166 349 33 325 303 340 340 288 354 343 308 317 40 339 307 103 79 65 351 330 335 352 16 26 344 319 48 19 17 351 355 65 79 74 38 37 47 56 72 80 76 50 74 97 102 97 91 89 87 85 79 80 88 90
128 348 328 350 110 314 297 347 340 328 1 2 359 340 331 80 86 16 357 19 316 320 314 317 329 358 3 41 62 58 64 74 79 86 78 65 66 77 83 85 77 81 110 113 110 107 104 100 96 96 96 96 95 99
68 27 356 321 40 5 332 342 7 27 335 359 244 27 66 31 89 344 303 312 308 308 301 272 204 50 45 54 76 87 88 93 92 88 83 70 64 73 86 95 108 116 115 116 116 116 114 113 110 107 104 101 99 99
41 329 313 38 56 40 38 356 348 30 327 320 19 76 92 79 330 293 296 321 338 343 50 72 89 99 84 81 86 99 117 116 100 101 89 89 73 49 79 96 104 107 110 110 110 111 112 111 110 107 104 101 100 99
358 349 36 66 50 350 341 322 355 28 59 91 118 116 88 70 3 21 14 15 19 20 45 68 78 99 76 82 77 63 68 87 120 111 115 115 117 124 122 120 120 121 120 117 114 113 112 109 108 106 105 105 104 102
289 324 80 71 96 223 221 195 271 283 151 60 43 76 107 153 309 34 30 30 37 51 54 64 62 63 72 66 66 84 75 72 105 116 123 126 130 130 129 128 127 124 121 119 118 116 115 111 110 109 108 107 105 102
301 260 126 103 233 205 131 229 218 127 90 64 58 110 124 114 56 20 14 32 41 46 42 52 59 54 74 84 94 103 111 117 117 122 126 127 127 127 126 125 125 123 122 120 119 118 117 116 115 114 112 109 105 100
259 254 80 108 133 196 153 42 279 95 76 82 62 62 45 56 90 329 33 38 55 58 66 81 94 99 100 102 108 111 113 115 122 125 125 125 124 125 125 125 126 125 123 120 119 120 119 119 117 116 114 110 105 98